Niagara District Airport
CYSN : now visible

Airfield :











YOU CAN JOIN US ON...

 
LOGIN :

Register | Disclaimer

   EN    FR    IT 

 









Legend :    VFR   Marginal VFR   IFR   Intensive IFR   Very Intensive IFR
Visi :
Ceiling :
>= 8 km
>= 3000ft
5 to 8 km
1000 to 3000 ft
1500m to 5 km
500 to 1000 ft
800 to 1500m
200 to 500 ft
< 800m
< 200 ft
Symbols :   Thunderstorms  Fog  Heavy snow  Heavy precipitations  Wind > 20 kt






- Airport Elevation : 321 ft
- IATA code : YCM


CYSN - Niagara District

CURRENT METAR :
  • 132300Z 05009KT 15SM BKN250 28/13 A3006 RMK CI6 SLP179 DENSITY ALT 1800FT

EXPIRED METARs :
  • 132200Z 05012KT 15SM BKN250 29/13 A3006 RMK CI7 SLP181 DENSITY ALT 1900FT
  • 132100Z 04012KT 15SM BKN270 30/14 A3007 RMK CI6 SLP183 DENSITY ALT 2000FT

TAF TAF CYSN
Valid from the 13 at 20:00 until the 14 at 01:00 UTC


131938Z 1320/1401 02012KT P6SM FEW030 SCT270
BECMG 1323/1401 06008KT RMK NXT FCST WILL BE ISSUED AT 141245Z
CZYZ FIR / North America



MET'MAP, your aeronautical weather chart ! - Copyright ORBIFLY December 2007 - Disclaimer

ORBIFLY MET'MAP TEAM :

Programming & Development : Alexandra Zaïnal
Concept & original design : Baudouin d'Aumeries
Assistance for programming : Marc-Olivier Méhu
Technical & hardware support : Manuel Goepfert

Contact : metmap@orbifly.com




SOURCES & CREDITS :

   NOAA       Earth
Advisory